Tracking 20041 objects as of 22-Nov-2019
Live streaming from Space Station
objects crossing your sky now

DELTA 1 DEB

Track DELTA 1 DEB now!
10-day predictions


NORAD ID: 12246
Int'l Code: 1978-026CP
Perigee: 852.1 km
Apogee: 934.4 km
Inclination: 99.3 °
Period: 102.7 minutes
Semi major axis: 7264 km
RCS: 0.186 m2 (medium)
Launch date: March 5, 1978
Source: United States (US)
Launch site: AIR FORCE WESTERN TEST RANGE (AFWTR)

Note: This is SATELLITE DEBRIS
aabbcc
Your satellite tracking list
Your tracking list is empty




NASA's NSSDC Master Catalog

Two Line Element Set (TLE):
1 12246U 78026CP  19325.75059208  .00000156  00000-0  13026-3 0  9991
2 12246  99.3030 145.6112 0056632 114.0395 310.9531 14.02231569981515
Source of the keplerian elements: AFSPC